Wind_Speed
5 5 5 6 6 7 7 7 8 9 10 10 10 10 10 11 11 10 11 11 11 11 10 9 8 8 8 8 8 8 7 7 7 6 6 6 6 6 6 7 6 6 6
5 6 6 6 6 7 7 8 8 9 9 9 9 9 9 9 10 10 10 10 10 10 10 9 9 8 8 8 7 7 7 6 6 6 6 6 6 6 6 6 6 6 6
6 7 7 6 6 7 7 8 8 8 9 9 9 9 9 9 9 9 9 9 10 9 9 8 8 8 7 7 7 6 6 6 6 6 6 5 5 5 5 5 5 6 5
6 7 7 7 7 7 8 8 9 9 9 9 9 8 8 8 8 8 8 8 8 8 8 7 7 7 6 6 6 5 6 6 6 5 5 5 5 5 5 5 5 5 5
6 8 8 8 8 8 9 9 9 9 9 9 9 8 7 7 7 7 7 7 7 7 6 6 6 5 5 5 5 5 5 5 5 5 5 4 4 4 4 4 4 4 4
7 9 9 9 9 9 9 10 9 9 9 9 9 8 7 7 7 7 7 6 6 6 6 5 5 5 4 4 4 4 4 4 5 5 4 4 4 3 3 3 3 3 3
8 10 9 10 10 9 10 10 10 10 10 10 9 9 8 7 7 7 7 6 5 5 5 4 4 4 4 4 4 4 4 4 4 4 4 4 3 3 3 3 3 3 3
9 10 10 11 10 10 10 10 10 11 11 10 10 9 8 8 7 7 6 6 5 5 4 4 4 4 4 4 4 4 4 4 4 4 4 4 3 3 3 2 3 3 3
9 10 11 11 11 11 10 10 12 12 12 11 11 11 9 8 7 7 6 6 6 5 5 5 4 5 5 5 4 4 4 5 5 5 4 4 4 3 3 3 3 3 3
10 11 11 12 12 12 12 12 12 12 13 12 12 11 10 9 8 7 7 7 7 6 6 5 5 5 5 5 5 5 5 6 6 6 5 5 5 4 4 4 4 4 4
11 12 12 13 12 12 12 13 13 13 13 13 13 12 11 10 9 8 7 7 6 7 7 7 6 6 6 6 6 6 7 7 7 7 7 7 6 6 6 6 6 6 5
11 12 13 14 13 13 13 13 13 14 14 13 13 12 11 10 9 9 8 7 7 7 7 7 7 8 8 7 7 7 8 8 9 8 8 8 8 7 7 7 7 8 7
10 12 13 15 14 13 13 14 14 14 14 14 13 12 11 11 10 10 9 8 8 8 7 7 7 8 8 9 9 9 9 9 9 9 9 9 8 8 8 8 8 8 8
10 11 13 14 14 14 14 14 14 15 16 15 14 13 12 11 11 10 10 10 9 9 9 9 8 8 9 9 10 10 10 10 10 10 9 9 9 9 9 9 10 10 10
11 12 13 14 14 14 15 15 15 15 16 16 15 13 12 10 10 11 11 10 10 9 9 9 9 9 9 10 10 11 11 11 10 11 11 11 11 11 10 11 11 12 11
11 13 13 13 15 15 15 16 16 16 16 16 15 14 13 12 11 11 10 11 10 10 10 9 9 9 10 10 10 11 11 11 11 12 12 12 12 12 12 13 13 13 13
11 13 14 14 14 15 15 15 16 16 16 16 15 14 13 12 11 11 11 11 10 10 9 9 9 9 9 10 10 10 10 11 12 11 12 13 13 13 14 14 13 14 14
12 13 14 14 15 15 14 15 15 15 16 16 15 14 14 13 12 11 11 11 11 10 10 9 9 9 9 10 10 10 10 11 12 13 13 13 14 14 15 14 14 14 15
12 13 14 14 14 15 15 14 14 14 15 15 15 14 14 13 12 11 11 11 11 10 10 9 9 9 9 9 10 10 11 11 12 13 14 14 14 15 15 14 15 15 15
13 14 14 15 14 14 15 15 15 15 14 14 13 13 13 13 12 11 11 11 11 10 9 9 9 9 8 8 9 10 11 11 12 13 14 14 14 15 15 15 16 17 17
13 14 15 15 14 14 14 15 15 15 14 13 13 13 13 12 11 10 10 11 11 10 10 10 9 9 8 8 8 9 9 10 11 11 12 13 14 15 15 16 17 17 17
12 13 14 15 15 14 14 14 14 14 13 13 13 12 12 12 11 10 10 11 10 10 9 9 9 8 8 8 8 8 8 9 9 10 11 13 13 14 15 16 16 17 17
12 12 14 16 15 14 14 14 14 13 13 13 12 12 11 12 11 10 9 10 10 10 9 8 8 8 8 8 8 8 8 8 8 9 10 10 11 11 12 13 15 16 17
12 12 14 16 15 15 15 14 14 13 13 13 12 12 11 11 10 10 9 9 9 9 8 8 8 8 8 8 8 8 8 8 8 9 9 9 10 10 11 12 14 15 15
11 12 13 15 15 14 14 14 14 14 13 13 13 12 11 10 10 9 9 9 8 8 8 7 7 7 7 7 7 7 8 8 9 9 9 9 10 10 11 12 13 14 15
12 12 12 13 14 14 13 13 13 13 13 13 13 12 11 10 9 8 8 8 8 8 7 7 6 6 6 6 7 7 8 8 8 8 8 9 10 11 11 11 12 13 14
Wind_Direction
152 149 146 146 147 147 147 143 139 135 130 126 124 120 116 114 112 108 104 106 107 107 105 103 103 102 100 96 90 88 87 90 92 90 94 95 91 91 93 97 94 94 91
167 164 165 165 166 163 159 153 150 144 136 134 132 128 123 120 119 114 110 108 111 111 107 105 104 105 102 99 95 90 88 88 87 89 91 93 95 96 95 98 94 93 90
179 178 174 174 179 176 171 164 159 156 149 143 138 133 129 126 125 123 117 115 115 113 110 109 106 105 105 102 98 94 92 88 90 92 90 90 94 99 102 98 94 93 91
189 191 187 184 187 183 177 172 167 162 158 153 148 143 137 135 134 133 129 123 118 118 119 116 113 113 111 108 102 98 97 93 94 94 94 96 100 106 106 101 97 96 96
202 198 195 193 193 191 185 180 175 169 165 162 157 153 152 149 143 142 138 132 126 122 121 123 121 122 117 113 112 110 106 106 103 102 103 103 107 112 113 109 109 107 106
209 203 199 199 199 197 193 187 184 180 176 172 169 165 161 159 156 152 150 145 139 135 130 130 132 133 130 128 131 131 128 117 119 119 116 113 116 128 128 125 126 124 123
212 208 203 200 200 200 199 195 192 191 185 180 179 175 171 168 166 163 161 161 157 153 148 143 143 147 145 146 147 147 147 148 145 142 139 137 136 141 142 140 147 144 143
214 209 208 204 204 204 204 201 199 197 193 188 187 186 183 181 177 176 177 176 179 182 177 173 171 171 170 168 171 169 167 173 172 169 168 169 166 174 172 163 165 170 166
217 213 214 209 209 209 209 207 203 202 198 194 194 194 191 190 188 190 193 193 196 201 199 197 193 190 191 190 191 191 190 191 191 190 190 191 192 196 195 190 191 194 189
220 219 218 212 210 213 214 211 208 207 203 200 200 199 197 198 202 205 205 205 209 211 210 210 207 203 202 202 203 203 204 203 203 204 207 210 215 215 213 210 210 208 205
223 222 220 214 213 216 215 213 212 211 210 209 205 203 204 206 208 210 206 209 213 215 217 220 219 216 216 217 215 216 216 216 216 217 219 220 226 228 228 225 221 217 214
225 221 218 214 213 216 218 216 215 214 214 214 211 209 211 212 212 213 213 215 218 219 221 225 226 224 226 226 222 224 227 228 227 228 229 228 228 232 233 230 228 227 223
225 217 217 213 213 217 221 221 219 215 215 217 216 216 216 215 217 219 221 222 225 224 224 227 227 230 233 233 230 230 235 237 235 232 232 232 232 234 236 236 234 232 229
225 220 217 214 215 219 221 219 220 219 218 220 220 219 220 221 223 224 224 224 226 227 229 231 235 236 238 239 238 237 240 243 241 239 238 234 236 240 241 242 238 237 234
227 227 221 219 220 222 222 221 223 223 221 220 220 223 224 225 227 228 227 226 228 229 231 233 239 240 241 242 243 243 244 243 245 245 243 239 241 242 244 245 243 241 240
234 229 224 222 224 223 223 224 223 225 223 222 222 224 226 229 230 231 230 229 230 232 232 236 240 239 240 245 244 245 244 242 243 245 245 243 244 247 248 249 246 243 243
237 229 225 223 224 224 224 225 223 223 224 224 223 226 228 229 229 231 232 231 231 233 233 235 238 239 242 245 246 247 247 245 243 246 247 247 248 251 253 252 251 250 251
238 228 225 225 224 222 224 224 224 224 223 223 224 226 228 229 231 230 229 229 229 231 230 235 241 244 246 246 247 247 247 248 247 249 252 253 253 254 255 256 253 254 259
241 233 226 226 225 224 225 223 224 225 224 224 226 226 227 229 228 231 232 227 224 225 229 235 242 247 247 247 247 248 249 251 252 254 254 255 256 257 257 255 253 256 260
243 234 227 225 225 225 225 224 222 223 222 225 225 225 227 227 227 228 229 224 222 225 229 234 238 244 247 247 248 249 251 255 257 257 258 258 259 259 260 260 258 259 257
244 232 228 226 226 226 224 222 220 221 220 221 225 224 224 225 222 221 223 221 224 226 227 230 233 238 242 248 253 253 255 257 259 260 261 263 265 263 262 262 262 265 263
243 234 227 224 222 221 221 217 215 216 220 220 220 217 220 222 219 221 223 223 227 228 229 229 231 236 240 247 257 257 256 260 264 266 266 267 269 268 265 263 264 266 266
239 231 224 222 219 219 218 216 214 216 218 216 217 217 215 217 221 221 224 225 227 230 229 230 232 237 243 250 256 259 259 265 269 271 273 272 273 271 271 268 265 268 267
231 225 218 218 218 219 218 215 214 216 218 216 215 212 210 212 214 218 222 222 223 226 228 228 231 237 243 250 254 258 262 265 270 275 277 275 276 276 276 273 270 269 269
225 220 217 215 216 219 218 218 217 214 214 213 208 204 204 208 211 215 217 216 218 220 221 224 231 236 242 249 254 258 263 267 271 275 279 278 278 280 280 277 275 274 274
222 215 214 214 217 219 219 221 217 210 208 206 200 201 202 205 206 209 205 205 209 213 216 223 230 239 246 253 259 262 265 269 270 273 276 280 282 283 285 284 285 283 281
Height
5883 5883 5884 5885 5885 5885 5886 5886 5887 5887 5887 5888 5889 5889 5889 5890 5890 5891 5891 5891 5891 5892 5893 5894 5894 5895 5895 5895 5895 5896 5896 5896 5896 5896 5896 5896 5896 5896 5896 5896 5895 5895 5895
5882 5882 5883 5884 5885 5885 5886 5886 5887 5887 5888 5888 5889 5889 5890 5891 5891 5891 5892 5892 5892 5893 5894 5894 5895 5896 5896 5896 5897 5897 5897 5897 5897 5897 5897 5897 5897 5897 5897 5897 5897 5896 5896
5881 5881 5882 5883 5884 5885 5886 5886 5887 5887 5888 5889 5889 5890 5890 5891 5892 5892 5893 5893 5893 5894 5895 5895 5896 5897 5897 5897 5898 5898 5898 5898 5898 5898 5898 5898 5898 5898 5898 5898 5898 5898 5897
5880 5881 5881 5882 5883 5884 5885 5886 5886 5887 5888 5889 5889 5890 5891 5891 5892 5893 5894 5894 5894 5895 5896 5896 5897 5897 5898 5898 5898 5898 5899 5899 5899 5899 5899 5899 5899 5899 5899 5899 5899 5899 5899
5879 5880 5880 5881 5882 5883 5884 5885 5886 5887 5888 5889 5890 5890 5891 5892 5892 5893 5894 5895 5895 5896 5896 5897 5897 5898 5898 5898 5899 5899 5899 5899 5900 5900 5900 5900 5900 5900 5900 5900 5900 5900 5900
5877 5878 5879 5880 5881 5882 5883 5884 5885 5886 5888 5889 5890 5890 5891 5892 5893 5893 5894 5895 5896 5896 5897 5897 5897 5898 5898 5899 5899 5899 5900 5900 5900 5900 5900 5901 5901 5901 5901 5901 5901 5901 5901
5876 5877 5878 5879 5880 5882 5882 5884 5885 5886 5887 5888 5889 5890 5891 5891 5892 5893 5894 5895 5895 5896 5897 5897 5897 5898 5898 5899 5899 5900 5900 5900 5901 5901 5901 5901 5901 5901 5902 5902 5902 5902 5902
5874 5875 5876 5878 5879 5880 5881 5882 5883 5884 5886 5887 5888 5889 5890 5891 5892 5893 5893 5894 5895 5896 5896 5897 5897 5898 5898 5898 5899 5899 5900 5900 5901 5901 5901 5901 5901 5902 5902 5902 5902 5902 5902
5873 5874 5875 5876 5877 5878 5880 5881 5882 5883 5884 5886 5887 5888 5889 5890 5891 5892 5893 5894 5894 5895 5895 5896 5896 5897 5898 5898 5898 5899 5900 5900 5900 5901 5901 5901 5901 5902 5902 5902 5902 5903 5903
5871 5872 5873 5874 5876 5877 5878 5879 5880 5882 5883 5884 5886 5887 5888 5889 5890 5891 5892 5892 5893 5894 5894 5895 5896 5896 5897 5897 5898 5899 5899 5899 5900 5900 5900 5901 5901 5901 5902 5902 5902 5903 5903
5868 5870 5871 5872 5874 5875 5876 5877 5878 5880 5881 5882 5884 5885 5887 5888 5889 5889 5890 5891 5892 5893 5893 5894 5895 5895 5896 5896 5897 5897 5898 5898 5899 5899 5900 5900 5900 5901 5901 5901 5902 5902 5902
5866 5867 5868 5870 5872 5873 5874 5875 5876 5878 5879 5881 5882 5884 5885 5886 5887 5888 5889 5890 5891 5892 5892 5892 5893 5894 5894 5895 5895 5896 5896 5897 5897 5898 5898 5899 5899 5900 5900 5900 5901 5901 5902
5864 5864 5866 5867 5869 5871 5872 5873 5874 5875 5877 5879 5880 5882 5883 5884 5885 5886 5888 5888 5889 5890 5890 5891 5892 5892 5893 5893 5893 5894 5895 5895 5896 5896 5897 5897 5898 5898 5898 5899 5899 5899 5900
5861 5862 5863 5865 5866 5868 5869 5870 5871 5873 5875 5876 5878 5880 5881 5882 5883 5885 5886 5886 5887 5888 5889 5889 5890 5890 5891 5891 5892 5892 5893 5893 5894 5894 5895 5895 5896 5897 5897 5897 5897 5898 5899
5859 5860 5861 5863 5864 5865 5867 5868 5869 5871 5872 5874 5876 5878 5879 5880 5881 5882 5883 5884 5886 5886 5887 5887 5888 5888 5889 5889 5890 5890 5891 5891 5892 5892 5892 5893 5894 5895 5895 5895 5895 5896 5897
5857 5858 5859 5860 5861 5863 5864 5865 5867 5868 5870 5872 5874 5875 5877 5878 5879 5880 5881 5882 5883 5884 5885 5886 5886 5886 5887 5887 5888 5888 5889 5889 5890 5890 5890 5891 5892 5892 5893 5893 5893 5894 5894
5854 5855 5857 5858 5859 5860 5861 5863 5864 5866 5868 5869 5871 5873 5874 5876 5877 5878 5879 5880 5881 5882 5883 5884 5884 5884 5885 5886 5886 5886 5887 5887 5888 5888 5888 5889 5889 5890 5890 5890 5891 5891 5892
5851 5852 5854 5855 5856 5857 5859 5860 5862 5864 5865 5867 5869 5870 5872 5873 5875 5876 5877 5878 5879 5880 5881 5882 5882 5883 5883 5884 5884 5884 5885 5885 5885 5886 5886 5886 5887 5887 5887 5887 5888 5889 5889
5849 5850 5851 5852 5853 5855 5856 5858 5860 5862 5863 5865 5866 5868 5869 5871 5873 5874 5875 5876 5877 5878 5879 5880 5880 5881 5881 5882 5882 5882 5883 5883 5883 5883 5883 5883 5884 5884 5884 5885 5885 5886 5886
5846 5847 5848 5849 5851 5853 5854 5856 5857 5859 5861 5863 5864 5866 5867 5869 5870 5872 5873 5874 5875 5876 5877 5878 5879 5879 5880 5880 5880 5880 5880 5880 5880 5880 5880 5881 5881 5881 5882 5882 5882 5882 5883
5843 5844 5845 5846 5848 5850 5852 5853 5855 5857 5859 5861 5862 5863 5865 5867 5868 5870 5871 5872 5873 5874 5875 5876 5877 5877 5878 5878 5878 5878 5878 5878 5878 5878 5878 5878 5878 5879 5879 5879 5879 5879 5879
5840 5841 5843 5844 5846 5848 5850 5851 5853 5855 5857 5859 5860 5861 5863 5864 5866 5868 5869 5870 5871 5872 5873 5874 5875 5875 5876 5876 5877 5877 5877 5877 5877 5876 5876 5876 5876 5876 5876 5876 5876 5876 5876
5838 5839 5840 5842 5844 5846 5848 5849 5851 5853 5855 5857 5858 5860 5861 5863 5864 5866 5867 5868 5869 5871 5871 5872 5873 5874 5874 5875 5875 5875 5875 5875 5875 5875 5874 5874 5873 5873 5873 5873 5873 5872 5872
5835 5836 5838 5840 5842 5844 5846 5847 5849 5851 5853 5855 5857 5858 5860 5861 5863 5864 5866 5867 5868 5869 5870 5871 5872 5872 5873 5873 5873 5873 5874 5873 5873 5873 5873 5872 5871 5871 5871 5870 5870 5869 5869
5833 5834 5836 5838 5840 5842 5844 5846 5847 5849 5851 5853 5855 5857 5858 5860 5862 5863 5864 5865 5867 5868 5869 5869 5870 5871 5871 5871 5872 5872 5871 5871 5871 5871 5871 5870 5870 5869 5868 5868 5867 5867 5866
5831 5832 5834 5836 5838 5840 5842 5844 5845 5847 5849 5851 5853 5855 5857 5859 5861 5862 5863 5864 5865 5866 5867 5868 5869 5869 5870 5870 5870 5870 5870 5870 5869 5869 5869 5868 5867 5867 5866 5865 5864 5864 5863